TimePST,TemperatureF,Dew PointF,Humidity,Sea Level PressureIn,VisibilityMPH,Wind Direction,Wind SpeedMPH,Gust SpeedMPH,PrecipitationIn,Events,Conditions,WindDirDegrees,DateUTC
12:00 AM,-41.6,-49.9,63,29.82,-9999.0,SW,1.2,-,N/A,,Unknown,220,2014-01-11 08:00:00
1:00 AM,-43.6,-52.2,61,29.82,-9999.0,East,1.2,-,N/A,,Unknown,90,2014-01-11 09:00:00
2:00 AM,-44.3,-53.0,61,29.82,-9999.0,ENE,1.2,-,N/A,,Unknown,70,2014-01-11 10:00:00
3:00 AM,-45.4,-54.2,60,29.81,-9999.0,Calm,Calm,-,N/A,,Unknown,0,2014-01-11 11:00:00
4:00 AM,-48,-57,38,29.80,,ESE,2.3,,,,,110,2014-01-11 12:00:00
4:00 AM,-47.6,-56.7,59,29.80,-9999.0,ESE,2.3,-,N/A,,Unknown,120,2014-01-11 12:00:00
5:00 AM,-47.7,-56.7,59,29.78,-9999.0,Calm,Calm,-,N/A,,Unknown,0,2014-01-11 13:00:00
6:00 AM,-48.5,-57.6,59,29.76,-9999.0,NNE,1.2,-,N/A,,Unknown,20,2014-01-11 14:00:00
7:00 AM,-49.7,-59.1,58,29.75,-9999.0,Calm,Calm,-,N/A,,Unknown,0,2014-01-11 15:00:00
8:00 AM,-50.1,-59.4,58,29.73,-9999.0,Calm,Calm,-,N/A,,Unknown,0,2014-01-11 16:00:00
9:00 AM,-50.1,-59.4,58,29.73,-9999.0,Calm,Calm,-,N/A,,Unknown,0,2014-01-11 17:00:00
10:00 AM,-50,-60,33,29.71,,NE,2.3,,,,,50,2014-01-11 18:00:00
10:00 AM,-50.3,-59.8,57,29.71,-9999.0,NE,2.3,-,N/A,,Unknown,40,2014-01-11 18:00:00
11:00 AM,-50.4,-59.8,58,29.70,-9999.0,North,1.2,-,N/A,,Unknown,0,2014-01-11 19:00:00
12:00 PM,-51.2,-60.9,56,29.69,-9999.0,SSE,1.2,-,N/A,,Unknown,160,2014-01-11 20:00:00
1:00 PM,-49.4,-58.7,58,29.67,-9999.0,Calm,Calm,-,N/A,,Unknown,0,2014-01-11 21:00:00
2:00 PM,-50.1,-59.6,57,29.65,-9999.0,Calm,Calm,-,N/A,,Unknown,0,2014-01-11 22:00:00
3:00 PM,-49.2,-58.4,58,29.64,-9999.0,ENE,1.2,-,N/A,,Unknown,60,2014-01-11 23:00:00
4:00 PM,-50,-59,35,29.63,,Calm,Calm,,,,,,2014-01-12 00:00:00
4:00 PM,-49.7,-59.3,57,29.63,-9999.0,Calm,Calm,-,N/A,,Unknown,0,2014-01-12 00:00:00
5:00 PM,-49.7,-59.1,58,29.62,-9999.0,Calm,Calm,-,N/A,,Unknown,0,2014-01-12 01:00:00
6:00 PM,-49.9,-59.3,58,29.60,-9999.0,Calm,Calm,-,N/A,,Unknown,0,2014-01-12 02:00:00
7:00 PM,-49.9,-59.3,58,29.59,-9999.0,West,1.2,-,N/A,,Unknown,260,2014-01-12 03:00:00
8:00 PM,-49.4,-58.7,58,29.58,-9999.0,West,2.3,-,N/A,,Unknown,270,2014-01-12 04:00:00
9:00 PM,-49.5,-58.7,58,29.57,-9999.0,Calm,Calm,-,N/A,,Unknown,0,2014-01-12 05:00:00
10:00 PM,-49,-58,35,29.56,,North,1.2,,,,,10,2014-01-12 06:00:00
10:00 PM,-49.0,-58.4,58,29.56,-9999.0,NE,2.3,-,N/A,,Unknown,50,2014-01-12 06:00:00
11:00 PM,-49.2,-58.4,58,29.56,-9999.0,Calm,Calm,-,N/A,,Unknown,0,2014-01-12 07:00:00